Location: Voyageurs National Park
(48.5020°N, 92.9292°W)
Time: 23:19:24
(UTC-05:00)

Amateur Radio Satellites - All Passes

Search period start: 19 October 2014 22:49
Search period end: 20 October 2014 22:49
Location: Voyageurs National Park, 48.5020°N, 92.9292°W

Satellite Date Start Highest point End Downlink Frequencies (MHz)
Time Altitude Azimuth
FUNcube-1 19 Oct 22:52:42 22:57:16 63° 259° (W) 23:01:49 145.950 - 145.970 MHz USB
UOSAT-12 19 Oct 22:58:30 23:01:59 20° 27° (NNE) 23:05:27 437.025 FM, 437.400 FM
Oscar 11 19 Oct 23:11:16 23:14:25 19° 269° (W) 23:17:34 145.825 FM, Beacon 2401.500 USB
RS-15 19 Oct 23:38:00 23:48:39 60° 117° (ESE) 23:59:15 29.354 - 29.394 USB, Beacon 29.352 USB
ZACube-1 19 Oct 23:44:11 23:47:44 22° 268° (W) 23:51:17 437.345 MHz
KITSAT 1 19 Oct 23:55:27 00:02:35 36° 250° (WSW) 00:09:41 435.175 FM
SO-50 20 Oct 00:25:16 00:29:05 24° 246° (WSW) 00:32:56 436.795 FM
UOSAT-12 20 Oct 00:38:12 00:42:57 72° 49° (NE) 00:47:38 437.025 FM, 437.400 FM
JAS-1B 20 Oct 01:11:00 01:12:07 10° 85° (E) 01:13:16 435.800 - 435.900 CW/SSB
MaSat-1 20 Oct 01:20:38 01:24:37 40° 114° (ESE) 01:28:16 437.345 MHz
RS-15 20 Oct 01:50:34 02:01:14 55° 323° (NW) 02:12:02 29.354 - 29.394 USB, Beacon 29.352 USB
Oscar 16 20 Oct 01:58:15 02:02:30 26° 93° (E) 02:06:43 437.025 USB, Beacon 2401.1428
Uribyol 2 20 Oct 02:08:56 02:11:47 15° 87° (E) 02:14:36 436.500 FM
ITAMSAT 1 20 Oct 02:13:26 02:16:25 15° 88° (E) 02:19:22 435.822 SSB
UOSAT-12 20 Oct 02:19:20 02:22:36 19° 248° (WSW) 02:25:50 437.025 FM, 437.400 FM
AO-Echo 20 Oct 02:36:48 02:41:29 31° 95° (E) 02:46:11 ?
Oscar 19 20 Oct 02:52:09 02:57:17 71° 103° (ESE) 03:02:23 437.125 CW, 437.150 USB
AO-27 20 Oct 02:56:19 03:01:08 35° 96° (E) 03:05:53 436.795 MHz FM
MaSat-1 20 Oct 02:57:04 03:00:32 25° 310° (NW) 03:03:43 437.345 MHz
JAS-1B 20 Oct 02:57:37 03:03:48 63° 103° (ESE) 03:11:04 435.800 - 435.900 CW/SSB
OPAL 20 Oct 03:14:32 03:15:50 11° 48° (NE) 03:17:08 ?
Oscar 16 20 Oct 03:37:10 03:42:06 49° 292° (WNW) 03:47:01 437.025 USB, Beacon 2401.1428
Gurwin Techsat 1B 20 Oct 03:39:26 03:44:33 45° 98° (E) 03:49:37 435.225 FM
AO-7 20 Oct 03:41:11 03:44:39 13° 83° (E) 03:48:05 29.400 - 29.500 MHz
Uribyol 2 20 Oct 03:46:42 03:51:58 86° 286° (WNW) 03:57:11 436.500 FM
ITAMSAT 1 20 Oct 03:51:19 03:56:35 84° 286° (WNW) 04:01:49 435.822 SSB
TMSAT-1 20 Oct 03:54:14 03:59:21 46° 98° (E) 04:04:25 436.925 FM
RS-15 20 Oct 04:06:50 04:16:32 34° 356° (N) 04:26:26 29.354 - 29.394 USB, Beacon 29.352 USB
AO-Echo 20 Oct 04:15:24 04:20:21 43° 293° (WNW) 04:25:20 ?
Uosat F 20 Oct 04:18:47 04:20:54 12° 87° (E) 04:23:00 435.120 FM
Oscar 19 20 Oct 04:32:30 04:36:07 20° 302° (WNW) 04:39:43 437.125 CW, 437.150 USB
AO-27 20 Oct 04:35:52 04:40:40 37° 295° (WNW) 04:45:26 436.795 MHz FM
OPAL 20 Oct 04:48:40 04:53:42 56° 67° (ENE) 04:58:43 ?
JAS-1B 20 Oct 04:49:06 04:54:13 28° 300° (WNW) 04:59:57 435.800 - 435.900 CW/SSB
JAS-2 20 Oct 05:14:35 05:19:48 19° 85° (E) 05:25:07 435.800 - 435.900 CW/SSB, 435.910 FM
Sapphire 20 Oct 05:15:25 05:20:19 36° 113° (ESE) 05:25:15 437.095 MHz 1200 baud AX-25 AFSK
Gurwin Techsat 1B 20 Oct 05:19:45 05:24:21 31° 297° (WNW) 05:28:57 435.225 FM
Uribyol 2 20 Oct 05:27:38 05:30:42 16° 306° (NW) 05:33:45 436.500 FM
AO-7 20 Oct 05:30:58 05:39:12 62° 104° (ESE) 05:47:25 29.400 - 29.500 MHz
ITAMSAT 1 20 Oct 05:32:20 05:35:19 16° 306° (NW) 05:38:18 435.822 SSB
TMSAT-1 20 Oct 05:34:31 05:39:05 30° 297° (WNW) 05:43:39 436.925 FM
PCSat 20 Oct 05:38:05 05:43:22 58° 118° (ESE) 05:48:42 145.825 MHz
Hamsat 20 Oct 05:47:19 05:48:40 11° 87° (E) 05:50:00 145.90 MHz
Uosat F 20 Oct 05:55:22 06:00:27 86° 105° (ESE) 06:05:31 435.120 FM
RS-15 20 Oct 06:21:44 06:32:16 46° 29° (NNE) 06:43:07 29.354 - 29.394 USB, Beacon 29.352 USB
STRAND 1 20 Oct 06:24:44 06:29:34 43° 67° (ENE) 06:34:26 ?
OPAL 20 Oct 06:28:50 06:32:54 23° 265° (W) 06:36:58 ?
JAS-2 20 Oct 06:58:12 07:05:48 81° 104° (ESE) 07:13:42 435.800 - 435.900 CW/SSB, 435.910 FM
Sapphire 20 Oct 06:58:29 07:03:40 45° 313° (NW) 07:08:54 437.095 MHz 1200 baud AX-25 AFSK
Hamsat 20 Oct 07:20:59 07:25:11 80° 285° (WNW) 07:29:22 145.90 MHz
PCSat 20 Oct 07:22:17 07:27:07 32° 319° (NW) 07:31:58 145.825 MHz
AO-7 20 Oct 07:24:12 07:31:41 39° 305° (NW) 07:39:10 29.400 - 29.500 MHz
SO-67 20 Oct 07:29:54 07:32:16 17° 92° (E) 07:34:37 435.3500 MHz FM
Uosat F 20 Oct 07:35:28 07:38:36 17° 304° (NW) 07:41:43 435.120 FM
STRAND 1 20 Oct 08:04:28 08:08:54 29° 266° (W) 08:13:23 ?
Saudisat 1A 20 Oct 08:32:49 08:35:28 16° 111° (ESE) 08:38:08 436.775 MHz
RS-15 20 Oct 08:34:33 08:45:38 78° 237° (WSW) 08:57:12 29.354 - 29.394 USB, Beacon 29.352 USB
JAS-2 20 Oct 08:44:03 08:50:09 29° 303° (WNW) 08:56:31 435.800 - 435.900 CW/SSB, 435.910 FM
Sapphire 20 Oct 08:45:22 08:48:31 15° 337° (NNW) 08:51:41 437.095 MHz 1200 baud AX-25 AFSK
Hamsat 20 Oct 08:59:36 09:00:25 11° 304° (WNW) 09:01:13 145.90 MHz
SO-67 20 Oct 09:02:12 09:05:23 35° 289° (WNW) 09:08:33 435.3500 MHz FM
PCSat 20 Oct 09:09:56 09:12:19 13° 344° (NNW) 09:14:42 145.825 MHz
AO-7 20 Oct 09:18:58 09:22:13 13° 329° (NNW) 09:25:28 29.400 - 29.500 MHz
MaSat-1 20 Oct 09:29:12 09:31:05 16° 44° (NE) 09:32:51 437.345 MHz
HO-68 20 Oct 09:52:18 09:59:13 47° 99° (E) 10:06:04 435.675 MHz FM
UKube-1 20 Oct 10:07:51 10:11:19 23° 93° (E) 10:14:46 145.840 MHz, 145.915 MHz
Saudisat 1A 20 Oct 10:10:06 10:14:29 77° 310° (NW) 10:18:56 436.775 MHz
Sapphire 20 Oct 10:33:14 10:34:26 11° 4° (N) 10:35:39 437.095 MHz 1200 baud AX-25 AFSK
FUNcube-1 20 Oct 10:39:00 10:42:09 19° 91° (E) 10:45:13 145.950 - 145.970 MHz USB
RS-15 20 Oct 10:48:22 10:56:14 23° 260° (W) 11:04:20 29.354 - 29.394 USB, Beacon 29.352 USB
Oscar 11 20 Oct 10:53:31 10:57:47 59° 101° (E) 11:02:02 145.825 FM, Beacon 2401.500 USB
PCSat 20 Oct 10:56:29 10:58:19 12° 11° (N) 11:00:08 145.825 MHz
MaSat-1 20 Oct 11:04:31 11:07:01 29° 248° (WSW) 11:09:17 437.345 MHz
ZACube-1 20 Oct 11:28:28 11:32:48 60° 101° (E) 11:36:59 437.345 MHz
HO-68 20 Oct 11:40:12 11:46:54 43° 299° (WNW) 11:53:34 435.675 MHz FM
UKube-1 20 Oct 11:43:33 11:47:42 43° 292° (WNW) 11:51:49 145.840 MHz, 145.915 MHz
Oscar 16 20 Oct 11:45:11 11:45:26 10° 50° (NE) 11:45:41 437.025 USB, Beacon 2401.1428
Saudisat 1A 20 Oct 11:51:38 11:54:47 19° 332° (NNW) 11:57:57 436.775 MHz
JAS-1B 20 Oct 12:01:31 12:04:15 14° 50° (NE) 12:06:57 435.800 - 435.900 CW/SSB
FUNcube-1 20 Oct 12:14:38 12:18:49 48° 290° (WNW) 12:22:54 145.950 - 145.970 MHz USB
Sapphire 20 Oct 12:16:15 12:20:09 20° 30° (NNE) 12:24:03 437.095 MHz 1200 baud AX-25 AFSK
Oscar 11 20 Oct 12:30:41 12:33:34 18° 299° (WNW) 12:36:26 145.825 FM, Beacon 2401.500 USB
KITSAT 1 20 Oct 12:33:48 12:39:57 25° 105° (ESE) 12:46:07 435.175 FM
Oscar 19 20 Oct 12:35:00 12:39:05 24° 61° (ENE) 12:43:10 437.125 CW, 437.150 USB
PCSat 20 Oct 12:39:15 12:43:45 26° 36° (NE) 12:48:14 145.825 MHz
AO-27 20 Oct 12:41:59 12:44:39 14° 53° (NE) 12:47:19 436.795 MHz FM
AO-7 20 Oct 12:58:35 12:59:59 11° 26° (NNE) 13:01:24 29.400 - 29.500 MHz
ZACube-1 20 Oct 13:05:53 13:08:45 17° 300° (WNW) 13:11:34 437.345 MHz
Oscar 16 20 Oct 13:18:41 13:23:42 54° 69° (ENE) 13:28:44 437.025 USB, Beacon 2401.1428
Gurwin Techsat 1B 20 Oct 13:26:52 13:30:21 18° 56° (NE) 13:33:51 435.225 FM
Uribyol 2 20 Oct 13:29:48 13:34:26 33° 64° (ENE) 13:39:05 436.500 FM
HO-68 20 Oct 13:30:23 13:32:49 12° 322° (NW) 13:35:14 435.675 MHz FM
ITAMSAT 1 20 Oct 13:34:31 13:39:10 34° 64° (ENE) 13:43:51 435.822 SSB
TMSAT-1 20 Oct 13:41:21 13:44:50 18° 56° (NE) 13:48:20 436.925 FM
JAS-1B 20 Oct 13:48:01 13:54:03 74° 71° (ENE) 13:59:43 435.800 - 435.900 CW/SSB
AO-Echo 20 Oct 13:53:28 13:58:12 55° 70° (ENE) 14:03:08 ?
Sapphire 20 Oct 13:59:09 14:04:36 68° 53° (NE) 14:10:01 437.095 MHz 1200 baud AX-25 AFSK
Oscar 19 20 Oct 14:13:01 14:18:06 56° 259° (W) 14:23:11 437.125 CW, 437.150 USB
AO-27 20 Oct 14:18:07 14:23:19 77° 73° (ENE) 14:28:34 436.795 MHz FM
PCSat 20 Oct 14:22:20 14:27:47 80° 238° (WSW) 14:33:12 145.825 MHz
KITSAT 1 20 Oct 14:26:18 14:34:25 88° 306° (NW) 14:42:34 435.175 FM
SO-50 20 Oct 14:42:45 14:47:05 48° 121° (ESE) 14:51:33 436.795 FM
AO-7 20 Oct 14:43:13 14:50:10 32° 51° (NE) 14:57:08 29.400 - 29.500 MHz
Oscar 16 20 Oct 14:59:17 15:03:23 24° 268° (W) 15:07:30 437.025 USB, Beacon 2401.1428
Gurwin Techsat 1B 20 Oct 15:04:22 15:09:41 84° 255° (WSW) 15:15:02 435.225 FM
Uribyol 2 20 Oct 15:08:55 15:13:49 40° 262° (W) 15:18:45 436.500 FM
ITAMSAT 1 20 Oct 15:13:45 15:18:36 39° 263° (W) 15:23:30 435.822 SSB
Saudisat 1A 20 Oct 15:15:14 15:17:36 14° 21° (NNE) 15:19:58 436.775 MHz
TMSAT-1 20 Oct 15:18:48 15:24:07 83° 256° (WSW) 15:29:28 436.925 FM
Oscar 10/S400 20 Oct 15:23:31 15:39:43 34° 154° (SSE) 16:08:30 145.825 - 145.975 CW/USB, Beacon 145.810 USB
ISS 20 Oct 15:25:50 15:28:55 35° 146° (SE) 15:32:01 145.800 FM
AO-Echo 20 Oct 15:33:41 15:37:22 21° 269° (W) 15:41:09 ?
JAS-2 20 Oct 15:34:29 15:36:55 12° 43° (NE) 15:39:26 435.800 - 435.900 CW/SSB, 435.910 FM
Uosat F 20 Oct 15:34:48 15:38:59 27° 62° (ENE) 15:43:12 435.120 FM
JAS-1B 20 Oct 15:41:29 15:45:24 18° 270° (W) 15:49:11 435.800 - 435.900 CW/SSB
Sapphire 20 Oct 15:43:25 15:47:32 22° 252° (WSW) 15:51:39 437.095 MHz 1200 baud AX-25 AFSK
AO-27 20 Oct 16:00:10 16:03:27 17° 271° (W) 16:06:45 436.795 MHz FM
PCSat 20 Oct 16:07:44 16:10:19 14° 257° (WSW) 16:12:54 145.825 MHz
SO-50 20 Oct 16:23:43 16:27:50 32° 322° (NW) 16:32:04 436.795 FM
KITSAT 1 20 Oct 16:23:45 16:30:55 33° 331° (NNW) 16:38:06 435.175 FM
UOSAT-12 20 Oct 16:32:27 16:36:59 55° 123° (ESE) 16:41:37 437.025 FM, 437.400 FM
AO-7 20 Oct 16:33:59 16:42:17 78° 252° (WSW) 16:50:37 29.400 - 29.500 MHz
Hamsat 20 Oct 16:44:05 16:46:27 15° 60° (ENE) 16:48:49 145.90 MHz
Gurwin Techsat 1B 20 Oct 16:48:08 16:50:29 13° 274° (W) 16:52:50 435.225 FM
Saudisat 1A 20 Oct 16:54:02 16:58:17 43° 43° (NE) 17:02:31 436.775 MHz
ISS 20 Oct 17:02:12 17:05:31 64° 345° (NNW) 17:08:52 145.800 FM
TMSAT-1 20 Oct 17:02:33 17:04:52 13° 274° (W) 17:07:12 436.925 FM
Uosat F 20 Oct 17:12:44 17:17:33 47° 261° (W) 17:22:26 435.120 FM
JAS-2 20 Oct 17:14:40 17:20:20 52° 66° (ENE) 17:26:46 435.800 - 435.900 CW/SSB, 435.910 FM
SO-67 20 Oct 18:07:27 18:08:47 12° 62° (ENE) 18:10:07 435.3500 MHz FM
SO-50 20 Oct 18:07:35 18:09:50 13° 346° (NNW) 18:12:07 436.795 FM
UOSAT-12 20 Oct 18:13:15 18:17:25 30° 323° (NW) 18:21:38 437.025 FM, 437.400 FM
Hamsat 20 Oct 18:17:41 18:21:54 70° 258° (WSW) 18:26:07 145.90 MHz
KITSAT 1 20 Oct 18:23:02 18:29:06 22° 360° (N) 18:35:10 435.175 FM
AO-7 20 Oct 18:31:07 18:36:25 18° 273° (W) 18:41:46 29.400 - 29.500 MHz
OPAL 20 Oct 18:33:28 18:38:28 67° 105° (ESE) 18:43:23 ?
Saudisat 1A 20 Oct 18:33:52 18:37:44 30° 243° (WSW) 18:41:36 436.775 MHz
STRAND 1 20 Oct 18:34:27 18:35:16 10° 84° (E) 18:36:04 ?
ISS 20 Oct 18:39:15 18:42:31 48° 5° (N) 18:45:47 145.800 FM
HO-68 20 Oct 18:41:54 18:45:20 14° 41° (NE) 18:48:46 435.675 MHz FM
JAS-2 20 Oct 19:00:40 19:05:47 31° 269° (W) 19:11:29 435.800 - 435.900 CW/SSB, 435.910 FM
SO-67 20 Oct 19:37:55 19:41:19 59° 259° (W) 19:44:45 435.3500 MHz FM
SO-50 20 Oct 19:50:23 19:52:27 13° 11° (NNE) 19:54:32 436.795 FM
UOSAT-12 20 Oct 19:56:51 19:59:03 13° 347° (NNW) 20:01:15 437.025 FM, 437.400 FM
STRAND 1 20 Oct 20:10:12 20:15:23 72° 103° (ESE) 20:20:31 ?
OPAL 20 Oct 20:13:14 20:16:53 21° 304° (NW) 20:20:30 ?
ISS 20 Oct 20:16:02 20:19:24 76° 204° (SSW) 20:22:44 145.800 FM
Oscar 11 20 Oct 20:19:57 20:20:51 11° 55° (NE) 20:21:45 145.825 FM, Beacon 2401.500 USB
KITSAT 1 20 Oct 20:20:07 20:27:18 33° 29° (NNE) 20:34:27 435.175 FM
HO-68 20 Oct 20:24:37 20:31:29 52° 63° (ENE) 20:38:24 435.675 MHz FM
ZACube-1 20 Oct 20:55:17 20:56:59 12° 56° (NE) 20:58:41 437.345 MHz
UKube-1 20 Oct 21:06:45 21:10:37 32° 66° (ENE) 21:14:31 145.840 MHz, 145.915 MHz
SO-50 20 Oct 21:30:26 21:34:35 28° 35° (NE) 21:38:46 436.795 FM
FUNcube-1 20 Oct 21:38:34 21:42:26 28° 65° (ENE) 21:46:17 145.950 - 145.970 MHz USB
UOSAT-12 20 Oct 21:39:08 21:41:14 13° 12° (NNE) 21:43:21 437.025 FM, 437.400 FM
STRAND 1 20 Oct 21:50:24 21:54:03 20° 302° (WNW) 21:57:42 ?
Oscar 11 20 Oct 21:51:56 21:56:16 75° 74° (ENE) 22:00:36 145.825 FM, Beacon 2401.500 USB
ISS 20 Oct 21:53:30 21:55:40 16° 223° (SW) 21:57:48 145.800 FM
HO-68 20 Oct 22:12:51 22:19:24 38° 264° (W) 22:26:01 435.675 MHz FM
KITSAT 1 20 Oct 22:15:40 22:23:49 87° 54° (NE) 22:31:54 435.175 FM
ZACube-1 20 Oct 22:28:02 22:32:38 78° 74° (ENE) 22:37:13 437.345 MHz
